Regional Weather Roundup
Issued by NWS State College, PA

Home | Current Version | Previous Version | Graphics & Text | Print | Product List | Glossary Off
Versions: 1 2 3 4 5 6 7 8 9 10 11 12 13 14 15 16 17 18 19 20 21 22 23 24 25 26 27 28 29 30 31 32 33 34 35 36 37 38 39 40 41 42 43 44 45 46 47 48 49 50

000
ASUS41 KCTP 241910
RWRCTP

REGIONAL WEATHER ROUNDUP
NATIONAL WEATHER SERVICE STATE COLLEGE PA
300 PM EDT SUN JUL 24 2016

Note: "fair" indicates few or no clouds below 12,000 feet with no
significant weather and/or obstructions to visibility.

* = STATION THAT DOES NOT REPORT PRECIPITATION /E.G. RAIN...SNOW...ETC/
    THUNDER OR FOG.

PAZ002>004-007>009-013>016-020>023-029>032-242000-
WESTERN PENNSYLVANIA

CITY           SKY/WX    TMP DP  RH WIND       PRES   REMARKS
ERIE           CLOUDY    88  65  46 SE6       29.96
MEADVILLE      PTSUNNY   82  64  54 SW6       30.00F
FRANKLIN*      PTSUNNY   84  64  51 S9        30.03F
NEW CASTLE     TSTM      72  70  94 W22G31    30.03R FOG
BEAVER COUNTY  NOT AVBL
BUTLER*        MOSUNNY   88  70  55 S7        30.02F
PITTSBURGH INT CLOUDY    89  67  47 SW9       30.00F
PITTSBURGH     CLOUDY    90  68  48 SW10      29.99F
INDIANA*       MOSUNNY   90  70  51 W6G14     30.03F HX  95
LATROBE        MOSUNNY   90  68  48 MISG      30.01F
WASHINGTON CO* MOSUNNY   91  70  49 SW6       30.01F HX  97
$$

PAZ004>006-010>012-017>019-024>028-033>037-041-042-045-046-049>053-242000-
CENTRAL PENNSYLVANIA

CITY           SKY/WX    TMP DP  RH WIND       PRES   REMARKS
BRADFORD       CLOUDY    82  55  39 W7        30.06F
DUBOIS         MOSUNNY   90  59  35 N7        30.02F
CLEARFIELD     MOSUNNY   97  55  24 W8        30.01F HX  95
JOHNSTOWN      MOSUNNY   88  64  44 W13G18    30.07F
ALTOONA        MOSUNNY   92  64  39 VRB6      30.02F
STATE COLLEGE  SUNNY     93  61  33 NW6       30.00F
WILLIAMSPORT   CLOUDY    91  57  31 SW5       29.95F
SELINSGROVE    MOSUNNY   92  65  40 VRB6      29.96F
FT INDIANTOWN  PTSUNNY   92  58  31 S8        29.97F
CAPITAL CITY   PTSUNNY   94  63  35 S6        29.96F HX  95
HARRISBURG     PTSUNNY   94  66  39 SE7       29.96F HX  97
YORK           MOSUNNY   91  65  41 W7        29.98F
$$

PAZ038>040-043-044-047-048-054-055-060>062-067>071-242000-
EASTERN PENNSYLVANIA

CITY           SKY/WX    TMP DP  RH WIND       PRES   REMARKS
SCRANTON       SUNNY     91  60  35 SW9       29.98F
MOUNT POCONO   SUNNY     85  54  34 VRB3      30.05F
ALLENTOWN      SUNNY     94  59  31 VRB6      29.96F
QUAKERTOWN*    CLEAR     93  57  29 W3        29.98F
READING        MOSUNNY   93  60  33 S12G20    29.96F
LANCASTER      MOSUNNY   89  62  40 W7        29.98F
COATESVILLE    CLEAR     88  64  45 VRB7      30.02F
POTTSTOWN      SUNNY     93  56  28 VRB5      29.97F
BLUE BELL      SUNNY     90  61  37 CALM      29.96F
DOYLESTOWN     SUNNY     93  55  27 VRB5      29.96F
WILLOW GROVE   NOT AVBL
NORTH PHILA    SUNNY     95  60  31 CALM      29.97F HX  95
PHILADELPHIA   MOSUNNY   93  59  31 SW9       29.96F
$$




USA.gov is the U.S. government's official web portal to all federal, state and local government web resources and services.